GFSFLT2_850_thetae_000.txt.gz
Theta_e
319 319 321 321 323 323 323 323 321 322 320 320 321 320 320 318 318 317 318 318 316 314 312 311 304 296 298
317 318 318 318 321 321 321 321 322 322 321 321 321 321 320 319 319 317 317 317 315 311 310 305 299 297 299
316 317 318 317 318 318 320 321 321 319 317 321 320 320 320 319 318 318 317 316 312 309 307 303 294 297 297
315 315 316 316 318 318 319 319 318 320 319 320 319 319 320 316 317 316 316 313 309 309 305 300 293 293 294
310 312 316 315 315 316 316 316 316 315 315 316 316 318 316 314 315 313 312 310 307 305 297 293 292 291 292
306 308 310 312 312 314 314 315 313 314 313 315 314 312 311 310 312 312 310 305 305 297 294 293 293 292 292
302 304 307 308 311 312 313 313 314 314 313 312 312 307 308 308 307 305 304 303 301 293 292 292 292 292 292
301 303 303 305 306 307 310 311 312 313 312 309 310 308 307 306 303 301 300 300 299 293 292 292 291 291 291
301 302 302 304 306 305 307 308 309 310 310 310 307 303 301 300 300 300 299 298 292 292 292 291 291 290 290
300 302 303 304 305 306 306 306 307 307 310 305 300 298 296 297 297 297 295 292 292 292 292 292 291 290 289
297 300 300 302 305 305 305 304 306 306 308 304 299 298 299 296 295 295 289 290 291 291 290 290 290 290 289
294 296 298 300 300 301 302 302 302 302 302 300 299 299 299 290 291 289 287 287 287 288 288 287 286 288 288
292 293 295 296 296 296 297 296 297 298 298 296 299 298 298 292 287 286 286 286 286 285 285 285 285 285 285
291 292 293 294 293 293 293 294 295 292 292 295 295 292 287 286 287 286 286 286 285 285 285 285 286 286 286
290 291 291 292 292 292 291 293 294 292 292 292 288 285 286 286 286 285 285 285 286 286 286 286 286 286 286
290 290 290 290 290 290 290 291 292 291 291 286 285 286 286 285 286 286 287 286 286 286 286 286 288 288 288
289 288 288 288 288 289 289 289 290 289 285 286 285 285 285 285 285 286 286 286 286 286 287 288 288 289 288

GFSFLT2_850_thetae_003.txt.gz
Theta_e
310 311 312 314 316 316 316 317 317 318 320 320 321 321 320 320 321 321 320 318 317 318 320 320 317 316 313
307 309 311 312 313 314 315 317 318 317 317 318 319 321 321 321 320 320 320 319 318 318 318 319 315 315 313
305 307 308 309 311 313 314 316 315 317 317 317 317 319 318 319 317 320 320 319 319 318 318 314 310 310 307
299 303 304 305 308 310 311 315 313 313 314 314 315 316 317 315 315 318 319 319 319 319 319 317 313 310 304
297 300 301 302 304 305 307 309 311 312 312 312 313 316 315 314 314 315 317 317 317 318 317 312 307 309 304
295 297 298 300 301 302 303 305 307 311 312 312 311 312 312 313 313 314 314 316 315 314 312 307 306 306 304
296 297 299 299 300 300 301 303 305 306 307 309 310 310 311 313 313 313 312 312 311 304 305 304 303 301 299
297 298 297 298 299 301 301 302 303 305 306 305 308 309 310 311 307 308 307 305 302 303 302 300 299 297 293
295 295 295 296 298 300 302 303 303 303 303 305 307 306 306 307 302 302 301 300 300 300 299 297 294 293 293
293 292 292 294 296 298 298 298 300 299 302 303 305 302 298 298 298 297 298 298 299 297 295 293 293 293 292
290 291 291 292 293 295 295 295 296 297 299 301 302 299 298 294 295 294 296 296 295 293 293 293 292 292 292
289 289 290 292 291 292 293 294 294 295 297 297 299 298 297 292 291 291 292 293 292 292 292 293 293 292 292
289 289 289 289 291 291 291 291 291 293 294 295 294 296 296 296 291 291 291 290 290 291 291 290 291 291 290
287 288 288 289 289 290 289 289 289 290 291 292 293 294 294 294 294 293 292 286 286 287 287 288 288 286 286
287 287 287 288 288 288 288 289 288 289 290 290 291 288 286 287 286 286 285 285 285 285 285 284 284 284 285
286 287 287 287 287 287 287 288 288 288 289 288 285 285 285 284 285 285 285 285 286 284 284 284 285 286 286
286 286 286 286 286 286 287 287 288 288 286 284 285 284 285 284 284 285 286 286 286 285 286 286 287 287 287

GFSFLT2_850_thetae_006.txt.gz
Theta_e
298 294 294 295 301 304 306 307 310 311 313 314 315 317 317 317 319 320 318 319 319 319 320 319 317 319 320
293 293 293 293 294 297 303 305 305 310 311 312 315 316 316 317 317 317 317 320 319 320 320 320 318 318 320
293 293 293 292 295 297 298 299 303 307 308 312 312 311 313 313 314 315 316 318 315 314 318 320 320 317 319
294 294 294 293 295 296 297 298 300 302 306 308 309 311 310 311 312 313 316 316 315 316 315 318 319 318 319
292 293 293 294 295 296 298 299 299 300 301 304 306 308 312 312 310 312 312 314 314 314 315 316 318 319 318
291 291 291 291 295 297 297 297 299 300 301 302 303 306 306 306 308 309 310 310 313 313 313 317 318 319 315
290 290 291 293 296 295 297 297 295 297 299 300 301 302 305 306 308 309 309 310 312 312 314 315 316 315 310
291 292 293 294 292 293 294 294 295 299 300 302 302 302 304 305 307 308 309 310 310 313 312 312 312 309 304
290 290 290 290 291 292 292 293 293 293 296 298 300 301 302 304 306 306 308 308 310 310 308 305 303 303 300
287 288 289 289 289 290 290 291 291 291 295 296 299 300 300 301 302 303 304 304 304 302 301 300 300 299 297
286 287 288 288 289 288 289 289 289 289 291 291 294 294 297 299 299 299 300 299 298 298 298 298 297 296 294
285 286 287 287 287 288 288 288 289 289 290 291 290 292 294 295 296 296 296 296 296 296 295 295 295 293 293
284 285 285 286 287 287 287 288 288 288 288 290 291 291 292 294 294 292 293 293 294 294 294 293 294 294 292
283 283 285 286 287 286 287 287 287 287 288 288 289 290 292 291 293 291 292 292 293 292 292 293 294 294 293
282 283 284 285 286 286 286 286 286 287 287 287 288 288 288 288 288 290 292 292 292 291 292 292 291 292 292
282 283 283 285 285 285 286 286 286 286 286 286 285 285 287 287 289 291 290 286 289 289 288 289 289 289 288
282 283 284 285 285 285 286 286 285 285 286 286 284 285 284 283 284 283 284 285 286 285 285 284 284 285 285

GFSFLT2_850_thetae_009.txt.gz
Theta_e
295 297 295 293 294 294 293 291 294 294 296 298 302 306 310 312 314 315 317 317 318 319 320 320 321 323 322
294 293 292 293 294 293 293 295 295 293 296 300 303 307 308 310 312 313 315 315 316 317 318 316 317 320 321
291 291 292 292 292 292 292 292 294 296 299 299 302 302 305 307 310 311 311 311 313 314 316 317 316 317 317
290 290 290 290 290 290 291 291 293 296 298 299 297 299 303 304 307 308 309 310 312 314 315 316 316 316 314
289 290 290 289 290 290 291 292 294 295 296 297 298 299 301 302 305 309 310 311 309 310 312 314 314 315 315
288 288 288 289 290 291 291 292 294 293 295 294 294 297 298 299 300 304 305 305 307 308 310 310 313 313 313
287 288 287 287 289 290 291 290 292 293 293 293 296 297 299 301 302 303 304 305 308 309 309 310 312 313 313
285 286 287 287 288 289 289 290 290 291 291 292 293 294 297 301 302 301 302 305 308 308 309 310 312 312 312
286 286 286 287 288 289 289 290 289 290 290 290 294 296 296 298 300 300 302 304 307 308 310 310 312 313 313
284 283 285 285 287 287 288 288 289 289 289 290 290 290 293 296 298 299 303 305 306 308 308 310 310 310 306
282 283 284 284 285 286 286 287 288 287 288 288 288 288 289 291 293 298 303 304 305 304 303 304 307 306 303
282 283 283 283 284 285 286 286 286 286 287 287 286 287 288 290 291 297 299 301 300 300 299 300 300 300 301
282 282 282 282 283 284 285 286 286 286 286 286 286 287 287 289 291 294 296 297 298 298 296 296 297 297 296
281 281 281 282 282 284 285 285 286 286 286 286 286 286 287 288 289 292 293 294 295 295 295 295 294 294 294
280 281 281 282 283 284 285 285 286 285 285 285 285 284 286 287 288 290 291 293 294 294 294 294 293 292 292
280 281 281 282 283 284 285 285 285 285 285 285 286 286 285 285 287 290 292 292 292 293 293 293 292 293 293
280 281 282 283 284 285 285 285 285 284 285 285 286 283 287 284 287 289 290 291 292 291 292 292 291 291 291

GFSFLT2_850_thetae_012.txt.gz
Theta_e
291 291 291 291 292 292 293 294 294 294 295 297 297 295 294 299 302 304 306 309 313 314 315 317 318 319 320
290 291 291 291 292 291 291 292 292 292 293 294 295 296 297 298 301 302 303 307 311 313 315 316 317 318 321
290 290 290 290 291 291 291 290 291 292 293 293 296 298 298 300 299 298 301 303 308 311 312 312 315 316 317
289 290 289 289 289 290 290 290 290 291 292 294 295 296 297 298 299 299 303 305 307 309 310 311 312 313 316
289 289 288 288 288 289 289 288 288 289 292 293 294 294 295 295 295 296 299 301 305 308 309 309 311 313 315
289 288 287 287 287 287 288 288 289 289 292 291 291 292 293 293 295 298 299 300 302 304 307 309 309 310 312
287 286 286 286 286 287 287 287 288 289 290 290 291 291 292 293 294 295 299 301 302 303 305 306 307 308 310
285 285 286 286 286 286 286 287 288 289 290 291 290 290 291 293 295 296 298 300 301 301 303 306 307 308 309
285 285 284 284 285 286 286 287 288 289 289 289 289 290 291 291 294 295 296 298 300 302 304 306 307 308 309
283 283 283 284 285 285 285 286 286 287 287 288 288 289 289 291 293 294 296 300 304 305 305 306 307 309 310
282 282 283 283 283 284 284 284 284 285 286 288 287 288 288 288 289 290 294 300 303 307 307 308 309 309 309
281 282 282 282 283 283 283 284 284 285 286 286 286 286 286 287 287 290 293 298 300 304 304 304 305 307 307
281 281 281 282 282 282 283 284 285 286 286 286 286 285 285 285 286 289 291 295 298 300 300 300 300 301 301
281 281 281 281 282 283 283 284 285 286 286 286 285 284 284 285 287 290 290 294 295 298 299 298 298 299 300
280 280 281 282 282 283 284 285 286 286 285 284 284 284 285 286 288 289 290 293 295 296 296 295 295 296 297
280 280 281 281 282 284 285 286 285 284 284 284 285 285 285 285 286 287 290 292 294 294 294 294 294 294 295
280 280 281 282 283 285 285 285 284 284 283 284 282 285 286 285 285 287 289 290 293 293 293 292 292 291 292

GFSFLT2_850_thetae_015.txt.gz
Theta_e
290 291 291 290 291 291 291 292 291 291 292 293 293 294 294 295 296 297 298 300 302 304 305 308 312 312 313
290 290 290 290 290 291 290 289 290 290 291 291 293 294 294 294 295 298 299 299 302 301 302 302 308 312 314
289 289 289 290 290 290 289 288 288 289 291 290 290 292 293 295 296 296 298 298 299 299 301 303 304 310 313
289 289 289 289 289 289 288 287 287 288 288 289 290 291 293 294 295 294 296 297 294 295 299 303 306 309 311
288 289 288 288 287 287 286 287 287 287 288 288 289 289 290 291 292 293 294 295 295 297 300 301 305 308 310
289 288 287 286 285 285 286 287 287 286 287 287 288 289 290 291 292 294 294 295 296 296 298 300 303 305 309
287 286 285 285 285 286 286 285 285 285 287 287 289 289 291 290 290 292 293 293 294 296 298 300 301 304 306
285 284 284 285 285 285 284 285 285 286 286 288 287 289 288 289 288 290 291 293 295 297 299 301 303 303 304
285 284 284 284 284 284 284 285 285 286 285 285 286 287 287 288 288 290 293 294 294 296 297 299 302 302 304
283 282 282 282 283 283 284 284 284 284 284 284 285 286 287 288 289 289 289 290 293 297 300 301 301 302 304
282 282 282 282 282 282 282 282 283 283 283 284 285 285 286 287 287 287 288 290 293 300 305 305 305 305 305
281 282 282 282 282 282 282 283 283 283 284 285 285 286 287 287 286 286 288 291 295 300 304 305 306 306 307
282 281 281 281 281 282 282 283 284 284 286 286 287 287 285 284 284 285 288 291 295 298 301 302 302 303 306
280 280 280 281 281 282 283 284 285 286 286 286 285 284 284 285 285 287 290 291 294 297 299 298 299 301 301
280 280 280 281 282 283 284 285 286 285 284 284 284 284 285 286 288 288 289 291 293 295 298 297 298 299 299
279 280 280 281 282 283 284 285 285 284 283 283 283 285 286 285 286 287 289 291 292 294 295 296 295 296 296
280 280 281 282 283 283 284 285 285 284 282 282 284 286 286 285 286 287 289 291 293 294 294 294 294 294 295

GFSFLT2_850_thetae_018.txt.gz
Theta_e
288 288 289 288 288 289 289 289 289 290 290 290 290 290 291 292 293 294 295 295 296 297 299 300 302 305 306
288 288 288 288 288 288 289 289 289 288 288 288 288 289 291 291 291 291 292 294 295 297 298 299 301 303 303
288 288 288 288 288 288 288 287 287 286 286 287 288 288 289 289 291 292 292 294 295 295 296 298 299 299 301
288 288 287 288 288 287 286 285 285 285 285 286 287 287 288 289 289 290 291 293 293 294 295 296 297 298 300
288 287 286 286 286 285 284 284 284 285 286 285 285 285 286 287 288 289 291 292 293 294 295 296 296 298 300
286 285 284 285 285 285 284 285 285 285 284 284 285 285 286 287 289 290 292 292 292 292 294 295 295 297 297
284 284 284 285 284 285 285 285 284 284 284 284 285 285 286 285 287 288 289 290 290 291 293 294 295 295 298
284 284 285 284 284 284 284 283 283 283 284 284 285 284 284 284 286 286 288 289 290 292 292 294 295 297 298
284 284 283 283 283 283 283 283 283 283 282 283 284 283 283 284 285 286 289 289 289 289 290 292 295 296 297
282 281 281 281 282 282 282 282 282 282 282 282 283 283 284 285 287 286 287 287 287 290 292 293 295 296 298
281 281 281 281 281 281 281 281 281 282 283 283 283 284 284 285 285 286 286 287 290 292 295 297 298 297 299
280 281 280 280 280 281 282 283 283 283 284 285 284 284 285 285 285 286 287 290 291 293 297 304 304 302 300
281 280 280 280 281 282 283 284 285 285 285 285 285 285 285 284 285 286 287 291 292 295 299 303 305 304 303
280 279 280 280 281 282 283 284 284 285 283 283 283 284 284 285 286 288 288 289 293 295 296 298 299 302 304
279 279 280 281 282 283 283 283 284 285 283 283 284 284 285 285 286 288 289 291 293 295 297 297 296 297 299
280 280 280 282 282 283 283 282 282 283 283 283 284 286 286 285 286 288 290 292 294 295 295 296 297 297 297
280 281 282 282 282 282 283 283 283 283 284 283 283 284 284 284 286 288 291 292 294 294 294 294 294 294 295

GFSFLT2_850_thetae_021.txt.gz
Theta_e
287 287 287 287 286 287 287 287 288 288 289 290 289 289 289 289 289 290 292 292 293 294 294 296 297 298 300
287 287 287 287 287 287 287 287 286 286 287 287 287 287 287 288 289 290 291 291 291 293 293 293 295 297 299
287 286 287 287 287 287 285 285 285 285 285 285 285 286 287 288 288 288 289 290 291 291 292 293 294 296 297
287 287 287 286 285 284 284 284 285 284 284 284 285 286 285 285 286 287 288 288 289 290 291 293 294 295 296
288 287 285 284 283 283 284 285 284 284 284 285 284 283 283 284 285 286 287 288 290 290 292 292 293 294 295
286 285 284 283 283 284 284 284 284 283 283 283 283 283 283 283 284 286 288 287 288 290 291 292 292 293 294
284 284 283 283 285 284 283 283 283 283 283 283 283 283 283 283 285 285 286 287 288 289 290 290 291 292 293
283 283 284 284 283 283 283 283 282 282 282 282 282 282 282 282 284 284 285 286 286 288 289 290 291 291 293
283 283 282 282 282 282 282 282 282 281 281 281 281 282 282 283 284 285 286 287 288 288 289 289 290 291 292
282 281 281 281 281 281 281 280 281 281 283 281 282 282 283 283 285 284 285 285 286 287 287 288 290 292 293
280 280 280 280 280 281 281 281 280 281 284 283 283 283 283 283 284 284 285 286 287 289 290 291 291 291 292
280 280 280 280 281 281 282 283 283 283 285 284 283 283 283 284 284 285 287 289 290 291 292 293 294 295 295
280 279 280 281 281 282 282 283 282 283 284 284 283 283 282 283 284 285 287 290 291 292 294 297 300 303 300
279 280 280 281 281 281 282 283 283 283 284 283 283 283 284 284 285 286 288 289 292 294 295 298 301 303 301
280 280 281 281 281 282 282 283 283 283 284 284 284 285 286 285 286 287 290 292 293 294 295 296 297 299 301
281 281 281 281 281 282 282 283 283 283 284 284 284 285 286 286 287 288 291 293 294 294 294 294 295 295 297
281 281 282 282 282 282 283 283 283 284 284 284 285 284 285 284 287 289 292 293 293 293 293 293 293 294 296

GFSFLT2_850_thetae_024.txt.gz
Theta_e
286 287 287 286 286 287 287 286 286 286 286 287 287 288 289 289 289 289 289 290 291 292 293 294 295 296 297
287 286 286 286 287 287 286 284 285 284 285 286 287 287 287 287 287 288 289 289 290 290 291 292 293 294 295
285 286 287 287 287 286 284 283 283 283 284 284 285 285 286 287 287 288 289 288 288 288 289 290 291 293 293
286 287 286 287 284 284 283 283 283 283 284 284 284 285 285 286 286 285 286 286 287 288 288 289 290 290 291
286 286 285 284 283 283 283 283 284 283 283 283 283 283 283 283 283 284 284 285 286 288 289 290 290 291 292
286 285 283 283 283 283 283 284 283 282 282 282 282 282 282 282 283 284 285 286 287 288 289 289 289 290 292
283 282 283 283 284 283 282 282 282 282 282 282 282 282 282 282 283 284 284 285 286 287 287 288 288 289 291
282 283 283 283 282 282 282 282 282 281 281 281 281 281 282 282 283 284 284 285 286 286 287 288 288 289 290
283 282 281 282 281 282 281 280 280 280 282 281 282 281 282 282 283 284 285 285 286 287 287 288 288 289 290
281 281 281 281 281 281 280 280 280 280 282 281 281 282 282 283 283 283 283 284 285 285 286 286 288 289 289
280 280 280 281 281 281 281 280 280 281 283 282 282 283 283 283 283 283 284 285 286 288 290 290 289 289 288
280 280 280 281 281 282 282 282 282 282 283 283 283 283 283 283 282 285 285 287 288 291 290 291 291 289 289
279 280 281 281 282 282 282 282 283 283 283 283 283 283 282 283 283 285 286 289 291 291 293 293 294 293 290
280 281 281 281 282 282 282 283 282 284 284 284 284 284 284 286 285 286 289 286 292 293 293 295 298 300 299
281 281 282 282 283 283 283 283 283 283 284 285 285 285 286 287 286 288 289 292 293 293 293 293 297 298 298
282 282 282 282 282 283 283 283 283 284 284 284 285 286 288 288 288 288 292 292 292 292 292 292 294 298 300
282 282 282 283 283 283 284 284 284 285 285 285 285 286 286 285 289 290 292 293 293 293 292 292 291 291 300

GFSFLT2_850_thetae_027.txt.gz
Theta_e
285 285 285 285 286 286 286 286 286 286 286 286 286 286 287 288 289 289 290 290 291 291 292 292 293 293 294
285 285 285 286 286 286 286 287 284 284 284 284 285 286 287 287 287 288 288 289 289 289 289 290 291 292 293
285 285 286 286 285 285 284 283 283 283 284 284 284 285 286 286 287 287 287 288 288 288 288 289 290 291 291
285 286 285 285 284 283 282 282 283 283 283 284 283 284 284 284 285 285 285 286 286 287 287 288 288 289 290
285 285 283 283 282 282 282 283 283 283 282 282 282 282 282 282 283 283 284 284 285 286 287 287 288 288 289
284 283 282 282 282 283 283 282 282 282 282 281 282 281 282 282 283 283 284 285 286 286 286 287 288 288 289
282 282 282 283 283 282 282 282 282 282 281 281 281 281 282 282 283 283 284 284 285 286 286 287 287 288 289
282 283 283 283 282 282 282 282 281 281 281 281 281 282 282 283 284 284 284 284 285 286 287 287 288 288 288
282 282 281 281 281 282 281 280 280 280 281 280 281 281 282 283 283 283 283 284 285 286 286 287 288 288 289
281 281 282 282 281 281 281 280 280 280 281 280 281 281 282 282 283 283 284 285 285 285 286 286 287 287 288
281 281 281 282 282 282 282 281 280 280 282 281 281 282 281 282 283 284 285 287 288 288 290 290 289 288 287
280 280 281 282 283 283 283 283 282 282 284 283 282 282 283 283 283 286 287 289 289 291 290 291 291 290 289
280 281 282 283 283 283 283 283 284 284 284 284 284 284 284 283 284 287 287 290 291 291 291 292 292 292 290
280 282 283 283 283 283 283 284 283 285 285 284 285 285 286 287 287 287 290 287 291 292 292 292 293 297 292
281 282 283 283 284 284 284 284 283 284 285 285 286 287 289 289 289 289 290 291 292 292 292 292 294 294 295
282 283 283 283 284 285 285 284 284 284 284 285 286 288 290 291 289 289 291 292 292 292 292 291 292 298 297
283 283 283 284 284 285 285 285 285 285 285 286 286 287 286 287 290 291 290 292 293 292 292 291 291 295 301

GFSFLT2_850_thetae_030.txt.gz
Theta_e
285 284 284 284 284 285 285 285 285 284 285 286 287 286 286 287 288 288 289 289 290 290 291 292 293 294 295
284 284 284 284 285 285 285 284 283 283 284 284 285 286 286 286 287 287 288 288 288 289 290 290 290 292 293
284 284 284 285 285 284 283 282 282 282 283 283 284 285 285 286 286 286 287 287 287 288 288 289 290 290 291
284 285 285 284 283 282 282 282 282 283 282 283 283 283 283 284 284 284 285 285 286 286 287 287 288 288 289
284 283 283 282 281 282 282 283 283 282 282 282 282 282 282 282 282 283 283 284 285 286 286 287 287 288 288
283 282 282 282 282 282 283 282 282 282 282 282 282 282 282 282 282 282 283 285 286 286 287 287 287 288 288
282 282 282 283 283 282 282 281 281 282 281 281 281 281 282 282 283 283 283 284 285 286 286 286 287 287 288
282 282 283 283 282 282 282 282 281 281 281 280 281 281 281 282 283 284 283 284 285 285 286 286 286 287 288
282 282 282 282 282 282 282 280 280 281 282 280 281 280 281 283 283 283 284 285 285 286 286 287 287 288 288
282 282 282 283 283 282 281 280 280 280 284 281 281 281 281 282 283 285 286 288 287 285 285 287 287 287 287
282 282 282 283 283 283 282 281 280 280 284 281 281 282 281 282 284 287 287 288 289 290 291 290 290 289 287
281 281 282 283 284 284 284 284 283 283 284 284 283 283 283 283 283 288 289 290 290 291 291 291 291 291 291
280 282 283 284 284 284 285 285 285 285 285 285 284 284 285 284 285 289 288 289 291 291 291 291 291 291 291
281 282 283 284 285 284 284 285 284 286 286 286 286 286 287 290 289 289 289 287 290 291 291 292 292 292 293
282 283 284 284 285 285 285 285 284 285 286 287 288 288 290 291 290 290 289 289 290 292 291 291 293 293 293
283 283 284 284 284 285 285 285 285 285 285 286 287 289 290 291 290 290 289 290 290 292 291 291 294 296 294
283 284 284 284 284 285 285 285 286 285 285 286 287 287 285 286 291 290 290 289 290 290 291 291 293 297 294

GFSFLT2_850_thetae_033.txt.gz
Theta_e
285 285 285 285 285 285 285 285 285 285 285 285 286 286 287 287 288 288 289 289 289 290 291 291 292 293 293
284 284 285 285 285 285 285 284 283 283 283 284 285 286 286 286 287 287 288 288 289 289 289 290 290 291 292
284 285 285 285 285 283 283 282 282 283 283 283 284 285 285 286 286 287 287 287 287 287 288 288 289 290 291
285 285 284 284 283 282 282 283 283 283 283 283 284 284 284 284 285 285 285 285 286 286 287 287 287 288 289
285 284 283 283 282 282 282 283 283 283 283 283 283 283 283 283 283 283 283 284 285 286 286 287 287 288 288
284 283 282 282 282 283 283 282 282 283 283 283 283 283 283 283 283 283 284 285 285 286 286 287 287 288 288
283 282 282 282 283 283 282 282 282 282 282 282 283 282 283 283 284 283 283 284 285 286 286 287 287 287 288
282 283 283 283 282 282 282 282 282 283 282 281 282 282 283 284 285 286 285 284 285 286 286 287 287 288 288
282 282 282 282 282 282 282 281 281 281 284 281 282 281 283 285 286 286 285 285 287 287 286 287 287 287 288
282 282 283 283 283 283 282 280 280 280 284 281 281 281 282 284 286 289 290 290 289 288 287 288 288 288 288
282 283 283 283 284 284 284 282 281 281 285 281 281 283 281 282 287 290 290 290 290 290 291 291 291 291 289
282 282 283 284 284 285 285 285 284 284 285 284 283 283 284 283 283 290 290 291 289 290 290 291 291 291 290
281 282 283 284 285 285 285 285 286 286 286 286 285 285 285 284 284 289 289 289 290 289 290 290 290 291 291
281 283 283 284 285 284 285 285 285 286 286 286 285 286 286 289 289 290 289 288 289 289 290 291 291 292 292
283 283 284 284 285 285 284 285 285 285 286 286 286 287 289 289 290 290 289 289 289 289 290 291 293 294 292
283 283 283 283 283 284 284 285 285 285 286 285 286 288 289 290 290 289 290 289 289 290 291 291 293 292 290
283 284 283 283 283 284 285 285 285 285 285 285 285 286 285 287 289 290 289 290 289 290 291 291 292 293 291

GFSFLT2_850_thetae_036.txt.gz
Theta_e
287 287 287 286 287 287 287 286 286 286 286 286 286 287 287 288 288 289 289 289 290 290 291 291 292 293 293
286 286 286 287 287 286 286 285 285 285 285 286 286 286 287 287 288 288 288 288 289 289 290 290 291 291 292
286 286 286 287 287 285 285 285 285 285 285 285 286 286 286 287 287 288 288 288 288 288 288 289 289 289 290
286 286 287 286 285 285 285 285 285 285 285 285 285 285 286 286 286 286 286 286 287 287 287 288 288 288 289
286 287 285 285 284 284 284 284 284 285 284 284 285 284 285 285 285 285 286 286 286 286 287 287 288 288 288
286 285 285 284 284 284 284 285 284 284 285 284 284 284 284 284 285 285 286 286 286 286 287 287 287 288 288
284 284 284 284 283 284 284 283 283 284 284 284 284 284 284 285 285 285 286 286 286 286 287 287 287 288 288
283 283 283 284 284 283 283 283 283 284 284 283 284 283 284 286 288 288 287 287 287 288 287 287 287 288 288
283 284 284 283 283 282 283 283 282 283 285 283 284 283 284 287 287 288 288 289 290 289 287 287 288 288 288
284 283 282 282 282 282 282 282 282 281 284 283 282 282 283 285 287 290 291 291 291 290 289 290 290 289 289
282 282 282 282 282 282 282 282 282 282 286 282 282 282 282 283 287 290 290 291 290 291 290 289 289 289 289
281 281 281 282 283 284 285 285 284 284 286 285 283 283 283 283 284 290 290 291 290 290 289 289 289 290 290
280 281 282 284 285 285 285 285 285 286 286 286 285 285 284 284 284 286 287 290 290 289 289 289 291 291 292
280 282 283 283 284 283 284 284 284 286 286 286 285 285 285 285 286 287 290 288 289 289 289 290 292 292 291
281 282 282 282 284 284 284 283 283 284 286 286 286 285 286 287 288 289 289 289 289 289 289 290 293 292 291
283 283 282 283 283 284 284 284 283 285 285 286 285 285 286 288 289 288 289 289 289 289 290 290 291 292 292
283 283 283 283 284 284 285 284 285 285 285 285 285 286 286 286 288 290 289 290 289 289 289 290 290 292 293

GFSFLT2_850_thetae_039.txt.gz
Theta_e
287 288 288 287 287 287 287 287 287 287 287 287 288 288 288 289 289 289 290 290 291 291 292 292 292 293 293
288 287 287 287 287 287 287 287 286 286 286 287 288 288 288 288 289 289 289 289 290 290 290 291 291 292 292
287 287 286 287 287 287 286 286 285 285 286 286 287 287 288 288 288 288 289 289 289 289 289 289 290 290 291
286 286 286 287 286 286 285 285 285 285 285 286 286 286 287 287 287 287 287 288 288 288 289 289 289 289 290
286 286 287 286 285 285 285 285 284 285 285 285 285 285 286 286 286 286 287 288 288 288 288 289 289 288 289
286 286 286 285 285 284 284 284 285 284 284 285 285 285 285 285 286 287 287 287 288 289 289 289 289 289 289
286 285 285 284 283 284 285 284 283 283 283 284 284 285 285 286 286 287 287 288 288 288 289 289 289 289 289
284 284 284 284 285 285 284 283 283 283 283 284 284 285 285 285 287 288 288 288 288 289 289 289 290 289 290
284 284 285 285 284 284 283 283 283 283 283 282 284 284 284 286 286 287 287 289 290 290 289 289 289 290 290
283 283 283 283 283 283 283 283 282 282 284 283 282 282 283 284 286 288 289 290 290 290 291 290 290 290 289
282 282 282 282 282 282 282 282 282 282 285 282 281 282 281 282 286 287 289 290 290 291 291 290 289 289 290
281 281 281 281 282 283 284 284 283 282 285 284 282 283 282 282 283 287 288 289 289 290 290 289 290 290 291
281 281 281 283 284 284 284 283 283 285 285 285 284 283 283 283 284 285 285 289 290 289 289 289 290 290 290
282 283 283 283 284 283 283 284 283 285 286 286 285 283 284 285 285 285 287 287 288 289 289 289 290 290 291
282 283 284 283 284 284 284 283 281 283 285 286 286 284 285 286 286 287 288 288 289 288 288 289 290 290 290
284 283 283 283 283 284 284 284 282 284 284 285 284 285 286 286 287 288 287 288 289 289 288 289 289 291 292
284 284 284 284 284 285 285 285 285 285 285 284 285 285 286 286 286 287 287 288 289 289 289 289 289 291 291

GFSFLT2_850_thetae_042.txt.gz
Theta_e
287 287 287 287 286 287 286 286 287 287 287 288 288 289 289 289 290 290 290 291 291 291 292 292 293 293 294
287 287 287 286 285 286 286 286 286 286 287 287 288 288 288 289 289 289 290 290 290 291 291 291 292 292 293
286 286 285 285 286 286 286 285 285 285 285 285 286 287 288 288 288 289 288 289 289 290 290 290 291 291 291
285 285 285 286 286 285 285 285 284 284 284 285 286 285 286 286 286 287 287 287 288 289 289 290 290 290 290
285 285 286 285 285 285 284 284 284 285 285 285 284 285 285 286 286 286 286 288 288 289 289 290 290 290 290
285 285 285 285 284 284 284 284 284 285 284 284 284 285 285 285 286 286 286 287 288 289 289 290 290 290 290
285 284 284 284 284 284 285 285 285 284 283 283 284 285 285 285 286 286 286 287 287 289 290 290 290 290 290
284 284 284 284 284 285 285 284 284 284 283 283 284 284 285 285 286 286 287 287 288 288 288 289 290 290 290
283 283 284 284 284 284 283 283 282 283 283 282 283 283 283 285 285 286 286 286 287 289 288 288 290 290 290
283 283 283 283 283 283 282 282 282 282 283 282 281 281 281 282 284 286 287 287 288 288 289 290 290 289 290
282 283 283 284 284 284 282 281 281 281 285 281 281 281 281 281 284 286 286 287 287 289 290 290 290 289 289
282 283 283 284 284 284 284 284 284 283 284 284 282 282 282 282 282 285 286 287 287 289 289 290 290 290 289
282 283 283 284 284 284 285 285 285 285 285 285 283 283 282 282 283 284 285 287 288 288 288 289 289 289 289
283 284 284 284 284 284 284 284 284 286 286 285 285 282 283 283 284 285 286 285 287 287 288 287 288 289 289
284 284 284 284 284 284 284 284 282 283 285 286 285 283 284 284 285 286 286 287 287 287 287 287 289 288 289
284 284 284 284 284 285 284 285 284 284 284 285 283 284 284 285 285 286 286 286 287 287 287 287 288 288 289
284 284 284 284 284 285 285 285 285 285 284 284 284 284 284 285 286 286 286 287 287 287 287 287 288 289 290

GFSFLT2_850_thetae_045.txt.gz
Theta_e
287 286 286 286 285 285 285 286 285 285 287 287 288 289 289 289 289 290 290 291 291 292 292 292 293 293 294
286 286 285 285 285 285 285 285 284 284 285 286 286 287 287 288 289 289 289 290 290 290 290 291 292 292 292
286 286 286 285 284 285 284 284 284 284 284 285 285 286 287 287 287 288 288 288 288 289 289 290 291 291 292
286 286 285 285 285 285 284 284 284 284 284 285 285 285 285 285 285 285 286 286 287 288 289 289 290 290 291
286 285 285 285 284 284 284 283 284 284 285 285 284 284 285 285 285 286 286 286 288 288 288 289 290 290 291
286 285 284 284 283 283 283 284 284 284 284 284 284 284 285 285 285 285 286 285 287 287 288 289 290 290 290
285 284 283 283 283 284 284 285 284 284 283 282 285 285 285 285 285 286 286 285 286 287 288 289 290 290 291
284 284 283 284 284 284 284 283 283 284 284 282 284 284 284 284 285 286 286 286 286 287 287 287 288 289 290
283 283 283 283 283 283 282 282 282 284 284 282 283 282 283 285 285 285 285 285 285 286 286 286 287 288 290
283 283 283 284 284 283 283 282 282 281 283 282 281 281 281 282 284 285 286 286 286 286 287 287 288 288 288
283 284 284 284 285 285 284 283 282 281 284 282 281 281 281 281 283 285 286 286 286 287 287 288 289 288 289
283 284 284 285 285 285 284 284 284 283 285 285 282 282 281 281 282 285 285 286 286 287 287 288 288 288 289
283 284 284 284 284 285 285 285 285 285 286 285 284 284 282 282 282 283 284 286 287 287 286 287 287 288 289
284 284 284 285 285 285 285 285 285 286 286 286 285 284 283 283 283 283 285 283 286 286 286 286 287 288 288
285 285 285 284 285 285 285 284 283 285 286 286 286 285 285 284 284 285 285 286 286 286 286 286 288 289 289
285 285 285 285 285 285 284 284 284 285 285 285 285 285 285 285 284 285 285 286 286 287 287 286 286 289 288
285 285 285 285 284 284 285 284 285 285 285 285 285 285 284 283 285 285 286 286 287 287 287 287 286 289 289

GFSFLT2_850_thetae_048.txt.gz
Theta_e
287 287 287 286 286 286 285 285 285 285 285 287 287 288 288 288 289 289 290 290 291 292 292 293 293 294 294
287 287 286 286 285 285 285 284 284 284 284 286 286 287 287 288 288 289 289 289 290 290 290 291 291 292 293
287 286 286 285 285 284 284 283 283 284 284 285 285 285 286 287 288 287 287 287 288 288 289 289 290 291 291
286 286 285 285 284 284 283 283 283 284 284 285 285 285 285 285 285 285 285 285 286 287 288 289 289 290 291
286 286 285 285 284 283 283 283 284 284 285 284 285 284 286 286 286 286 286 286 286 287 288 288 289 289 289
286 286 285 284 283 283 284 284 284 285 284 283 285 285 286 285 285 285 285 285 286 287 287 287 288 288 289
285 284 284 283 283 284 284 284 283 284 283 283 285 285 285 285 285 285 285 285 285 286 287 288 288 288 289
284 284 284 284 284 284 283 283 283 284 284 282 284 284 285 285 285 286 285 285 285 285 286 287 287 287 288
283 284 284 283 283 283 283 283 284 284 285 282 284 283 284 285 285 285 285 285 285 285 286 285 286 287 288
284 284 284 284 284 284 284 283 283 281 283 282 282 282 282 283 284 285 286 286 286 286 286 285 285 286 286
283 284 284 285 285 285 284 284 283 283 285 283 281 282 281 282 284 285 285 286 286 286 286 286 286 286 286
284 284 284 285 285 285 285 285 284 284 285 285 283 283 282 282 282 285 285 285 285 286 286 287 286 286 286
284 285 285 285 285 285 285 285 285 285 285 285 284 284 283 282 283 284 285 286 286 286 286 286 286 287 287
284 285 285 285 285 285 285 285 285 286 286 285 285 284 283 284 284 285 285 283 286 286 286 286 287 287 287
285 285 285 285 285 285 285 285 284 284 285 286 285 285 285 285 285 286 285 285 286 286 286 286 287 288 288
285 285 285 285 285 285 284 284 284 285 285 285 285 285 285 285 284 285 285 285 286 286 286 285 286 288 288
286 285 285 285 284 284 284 284 284 285 285 285 285 284 283 283 286 285 285 286 286 287 287 287 287 288 288

GFSFLT2_850_thetae_051.txt.gz
Theta_e
288 288 287 287 287 286 286 285 285 285 284 285 286 287 288 288 289 289 290 290 291 291 292 292 293 293 294
287 287 287 286 286 285 285 285 284 284 284 285 286 286 287 287 288 288 288 289 289 290 290 291 291 292 292
287 286 286 286 286 285 285 284 283 284 285 285 286 286 286 287 287 287 287 287 288 288 288 289 290 290 291
286 286 286 286 285 284 284 283 284 285 286 285 285 285 285 285 286 286 286 286 286 286 287 288 288 289 290
287 286 286 285 285 284 283 284 284 285 285 284 284 285 286 286 286 286 286 286 286 287 287 288 288 289 289
286 286 285 284 284 283 284 284 283 284 284 284 285 286 286 286 286 286 285 285 285 286 287 287 288 288 288
285 285 284 284 284 284 284 284 283 284 284 285 285 286 286 286 286 286 286 286 285 285 287 287 287 288 288
284 284 284 284 284 284 283 283 283 284 284 284 284 285 285 285 286 286 286 286 285 285 286 287 287 287 287
283 284 284 283 283 283 284 283 284 284 284 283 284 284 284 285 285 286 286 285 285 285 285 285 285 286 287
284 284 284 284 284 284 284 284 283 282 282 283 282 282 282 282 284 285 286 286 286 286 285 285 285 284 285
284 284 285 285 285 285 285 284 284 283 285 282 282 282 280 282 284 285 285 286 286 286 286 286 285 285 284
284 285 285 285 285 285 285 285 285 285 285 284 282 283 283 282 282 285 285 285 286 286 286 286 286 286 285
285 285 285 285 285 285 285 285 285 285 285 285 284 284 283 283 283 284 285 286 286 286 286 286 286 286 286
285 285 285 286 285 285 285 285 285 285 285 285 285 284 284 284 284 284 286 284 286 286 286 286 286 287 287
285 285 286 285 285 285 285 285 284 285 285 286 285 285 285 285 285 286 286 286 287 286 286 286 288 287 287
285 285 285 285 285 285 285 285 285 285 285 286 286 285 286 285 284 285 286 286 287 287 286 285 286 287 287
286 286 285 285 285 286 286 285 285 285 285 286 285 284 283 283 286 284 284 285 286 286 286 286 287 288 288

GFSFLT2_850_thetae_054.txt.gz
Theta_e
290 289 288 288 287 286 286 286 286 286 285 284 285 287 288 288 289 289 290 290 291 291 292 293 293 293 294
288 287 287 286 286 286 286 285 285 285 284 285 286 286 286 287 288 288 289 289 290 290 290 291 291 292 292
287 287 286 286 286 286 285 285 284 284 285 286 286 286 286 286 287 287 287 287 288 288 289 289 289 290 291
287 286 286 286 285 285 284 284 284 286 286 286 285 286 286 286 286 286 286 286 286 286 287 287 288 289 289
286 286 286 286 285 284 284 284 284 285 286 286 286 286 287 287 286 286 286 286 286 286 288 288 288 288 289
286 286 285 285 284 284 284 284 284 285 285 285 285 286 286 286 286 286 286 286 286 286 287 287 287 287 288
285 285 285 284 284 284 284 283 283 284 283 285 285 286 286 286 286 286 286 286 286 286 286 287 287 287 288
284 284 283 284 284 283 283 283 283 284 284 284 286 285 285 285 286 286 286 286 285 285 286 286 287 287 287
283 283 284 284 284 284 284 283 284 285 285 283 285 284 285 285 285 285 285 285 285 285 285 285 285 286 287
284 285 285 285 285 284 284 284 284 284 284 283 284 283 282 283 284 285 285 286 286 286 286 285 285 285 285
284 285 285 285 285 285 285 285 284 285 285 282 282 283 281 283 284 285 285 286 286 286 286 286 286 285 284
284 285 285 285 286 286 286 285 285 285 285 284 283 284 283 282 283 285 285 286 286 286 287 287 286 285 285
285 285 285 285 286 286 286 286 286 286 285 285 284 284 284 284 284 285 285 287 287 287 286 286 286 286 286
285 285 286 286 286 286 286 286 286 287 286 286 285 285 284 284 284 285 286 283 286 286 286 286 286 287 287
285 285 286 286 286 286 286 286 285 286 287 287 286 286 285 284 284 286 286 286 286 286 286 286 287 287 287
285 285 285 285 286 286 286 286 286 286 286 286 286 286 285 284 284 285 286 285 286 286 286 285 286 287 287
285 285 285 285 285 286 286 286 286 286 286 285 285 284 283 283 285 285 285 286 286 286 286 286 287 289 288

GFSFLT2_850_thetae_057.txt.gz
Theta_e
300 294 289 289 288 288 287 286 287 286 286 285 285 286 287 288 289 289 290 290 291 291 292 292 293 294 294
290 289 288 288 287 286 287 286 286 286 285 285 286 287 287 287 287 288 289 289 290 290 290 291 291 292 292
288 288 287 286 286 286 286 286 285 286 287 287 287 287 287 286 287 287 287 287 288 288 288 289 289 290 291
287 287 286 286 286 285 285 284 285 287 287 286 287 287 287 287 286 287 287 287 286 286 287 287 288 289 290
286 286 286 286 285 285 284 284 286 287 287 287 287 287 287 287 287 287 287 286 287 286 287 287 288 288 289
286 286 285 285 284 284 284 284 284 286 285 284 286 286 287 286 286 286 287 286 286 286 287 287 288 288 288
285 285 285 284 283 284 284 283 284 286 284 284 286 286 286 286 286 286 286 286 286 286 286 287 287 287 288
284 284 283 284 284 284 284 284 284 286 285 284 286 285 285 286 286 286 286 286 285 285 286 286 287 287 287
283 283 284 284 284 284 285 284 284 286 285 284 285 284 285 286 286 286 286 286 285 285 285 285 285 286 286
285 285 285 285 285 285 285 285 285 284 284 283 284 283 282 285 285 286 286 286 286 286 286 286 286 284 284
285 285 285 285 286 286 286 285 285 285 286 283 283 284 282 283 285 286 286 287 287 287 287 287 286 286 285
285 285 286 286 286 286 286 286 285 286 286 285 284 284 284 283 284 286 287 287 287 288 287 287 286 286 285
285 285 286 286 286 286 287 287 287 287 287 286 285 285 284 284 284 286 286 287 287 287 286 286 286 287 287
285 285 286 286 286 286 287 287 287 288 287 286 286 285 285 285 284 286 287 284 287 286 286 286 287 287 287
285 286 286 286 286 286 286 286 286 286 287 287 286 286 285 285 285 286 286 286 286 286 286 286 287 287 288
286 286 286 286 286 286 286 286 286 286 285 286 286 286 286 284 285 285 285 285 286 286 286 284 287 288 288
285 285 285 285 284 285 286 286 286 285 285 285 285 284 283 283 285 285 285 287 287 287 287 287 288 290 289

GFSFLT2_850_thetae_060.txt.gz
Theta_e
300 299 299 300 296 291 290 288 287 287 287 287 286 286 287 288 289 290 290 291 292 292 293 293 293 294 295
299 299 297 291 290 288 287 286 287 287 286 286 286 287 287 287 287 288 289 289 290 291 291 291 292 292 293
295 291 288 288 287 286 287 286 286 286 286 287 288 287 287 287 287 287 287 287 288 288 289 289 290 290 291
288 287 287 287 287 287 287 287 286 286 287 288 288 288 288 288 288 288 288 287 287 287 287 288 288 289 290
287 288 288 288 288 287 286 286 286 287 287 287 286 287 288 288 288 288 287 287 287 287 287 288 289 289 289
288 288 288 287 287 286 286 285 285 286 286 286 287 286 287 287 288 287 287 287 286 286 287 287 288 288 288
287 287 287 286 285 284 285 285 285 286 286 285 286 286 287 287 288 287 287 287 286 286 286 287 287 288 289
285 285 285 285 285 285 285 285 285 286 286 285 286 285 286 287 288 287 287 287 286 286 286 286 286 287 287
283 283 284 285 284 284 285 285 285 286 286 285 286 285 286 287 287 287 287 287 287 287 286 286 286 286 287
285 285 285 285 285 285 285 285 285 285 285 285 285 283 283 286 286 287 287 287 287 287 287 287 286 285 285
285 285 285 286 286 286 286 286 286 286 286 284 285 285 282 284 288 287 287 288 287 287 287 287 287 286 285
285 285 286 286 286 286 286 286 286 286 287 285 285 285 285 285 285 287 287 287 287 287 287 286 286 286 286
286 286 286 286 286 287 287 287 287 287 287 286 286 285 285 285 285 286 286 287 287 287 286 286 286 286 287
286 286 286 286 286 286 286 287 287 287 287 286 286 285 285 286 284 285 286 283 286 287 286 286 286 287 287
285 286 286 286 286 285 286 286 286 287 287 287 286 285 285 285 285 286 285 285 286 286 285 286 287 288 288
285 285 285 286 286 285 285 284 284 285 286 286 286 285 285 285 285 286 285 285 286 286 286 286 288 289 289
285 285 285 285 285 284 283 284 284 285 285 284 285 285 285 285 285 285 285 286 286 287 287 287 288 291 290

GFSFLT2_850_thetae_063.txt.gz
Theta_e
305 303 302 301 301 299 299 299 295 291 289 288 288 288 287 287 289 290 290 291 291 292 293 294 294 294 295
302 301 299 298 298 296 292 290 288 288 287 288 287 287 288 288 288 288 288 289 290 290 291 292 293 293 293
299 298 297 294 292 289 288 287 287 287 287 287 288 288 288 288 288 288 288 288 289 289 289 289 290 290 291
294 291 288 288 288 288 288 288 287 287 287 288 288 288 289 288 289 288 288 288 287 287 288 288 288 289 290
287 288 288 289 289 288 288 287 286 286 288 288 287 288 288 288 288 288 288 287 287 287 288 288 289 289 290
288 288 288 288 288 287 287 286 286 287 287 288 287 288 288 288 288 288 288 287 287 287 287 287 288 289 289
285 287 287 287 287 286 285 285 285 287 286 287 288 287 289 288 288 288 288 287 287 287 286 286 287 288 288
285 286 286 286 285 285 285 285 286 286 286 286 287 288 289 289 289 288 288 288 288 287 287 287 287 287 288
283 283 283 284 285 285 286 285 285 287 287 287 287 287 288 289 289 289 288 288 287 287 287 287 286 287 287
285 285 286 285 285 285 285 285 285 285 286 286 287 286 285 288 288 288 288 288 287 287 287 287 286 286 286
285 285 285 285 285 285 286 285 286 286 287 285 286 286 284 286 288 288 287 287 287 287 287 287 287 287 286
285 285 285 286 286 286 286 286 286 286 287 286 286 286 285 285 286 287 287 287 287 287 287 286 286 286 286
286 286 286 286 286 286 286 287 287 287 287 287 286 285 285 284 284 286 286 288 288 287 286 286 285 285 286
286 286 286 286 287 286 287 286 286 287 287 286 285 284 284 284 283 284 286 283 286 287 286 287 286 287 288
286 286 286 286 286 286 286 286 285 285 286 286 286 284 283 284 284 285 285 285 285 285 285 286 286 287 288
286 286 286 286 286 286 285 284 283 283 284 285 284 284 285 285 285 285 285 285 285 286 285 285 287 289 289
286 286 285 285 285 285 285 284 283 283 284 284 285 285 285 285 285 285 285 285 286 286 286 285 286 289 289

GFSFLT2_850_thetae_066.txt.gz
Theta_e
304 302 303 304 302 300 300 300 300 299 294 292 289 288 288 288 288 289 291 291 292 292 293 294 295 295 295
304 303 302 301 300 300 299 296 295 292 288 288 288 288 288 288 289 289 289 290 290 291 292 292 292 293 294
302 301 300 299 296 294 291 288 288 288 288 288 287 288 289 289 289 289 289 289 289 289 289 290 290 290 291
299 298 295 290 288 288 289 289 288 287 287 286 288 289 289 289 289 289 288 288 289 289 289 289 289 289 290
291 288 288 288 289 289 288 288 287 286 287 288 288 289 289 289 289 288 288 288 289 289 289 289 289 290 290
287 288 288 288 288 288 287 287 285 287 288 289 288 290 289 289 289 288 288 288 288 288 288 288 288 289 289
286 286 287 287 287 286 286 285 287 287 288 291 289 290 289 289 289 289 288 288 288 288 288 288 288 289 289
286 285 285 286 285 285 286 287 288 287 286 288 289 290 290 290 289 289 288 288 288 288 287 287 288 289 289
284 283 283 283 284 286 286 286 287 288 288 288 288 288 290 290 290 289 288 288 287 288 287 287 287 288 288
284 285 286 286 286 286 286 286 286 287 287 287 288 287 287 289 288 288 289 288 287 287 287 287 286 287 286
286 286 286 285 286 286 286 286 286 286 287 285 287 287 285 286 288 289 288 288 288 287 287 287 286 286 285
285 285 285 286 286 286 286 286 286 287 287 286 286 286 285 285 286 287 287 287 287 287 287 286 286 286 286
285 286 286 286 286 287 286 286 287 287 287 286 286 285 283 283 284 286 286 286 287 286 287 287 287 286 287
285 286 286 286 286 286 286 286 286 287 286 285 285 284 283 283 284 285 285 284 286 286 286 287 287 287 287
285 286 286 286 286 286 286 286 286 286 286 285 283 283 284 284 285 286 285 285 285 285 285 285 286 286 287
286 286 286 286 286 286 285 285 285 285 284 285 283 284 284 285 285 286 285 285 285 285 286 286 286 287 287
286 286 286 286 285 286 285 285 285 285 284 284 283 284 284 284 285 285 285 286 286 286 286 286 286 287 287

GFSFLT2_850_thetae_069.txt.gz
Theta_e
309 309 305 307 302 305 300 300 300 298 299 298 295 293 290 288 288 289 290 291 292 292 293 294 294 295 295
305 303 305 302 302 301 299 298 297 296 293 290 288 288 288 288 289 289 290 290 291 292 292 293 293 293 294
302 302 301 300 298 297 296 293 291 289 288 288 287 287 287 289 289 290 290 290 290 290 290 290 290 291 291
299 299 298 296 294 291 288 288 288 288 287 286 286 288 289 289 289 289 289 289 289 289 289 290 289 290 290
295 294 291 288 289 289 288 288 288 287 286 288 288 289 289 289 289 289 289 289 289 289 289 290 290 290 291
287 288 288 288 288 288 287 287 286 286 288 289 289 289 289 289 289 289 289 289 289 289 289 289 289 289 290
286 287 287 287 287 287 286 285 285 287 288 290 289 289 289 289 289 289 289 289 288 288 288 288 289 289 290
286 286 285 285 285 285 284 286 286 286 287 288 289 290 290 290 290 289 289 288 288 288 288 287 288 288 289
285 284 283 283 283 284 285 285 286 287 288 288 288 290 290 290 289 289 289 288 288 288 287 287 288 287 287
284 284 285 285 285 285 286 286 286 287 287 287 287 287 289 289 289 289 289 288 287 287 287 287 287 287 287
285 285 285 285 285 285 286 286 286 287 286 286 287 287 284 286 289 289 289 288 287 287 287 287 286 286 286
285 286 286 286 286 286 286 287 286 286 286 286 286 286 285 285 285 288 288 287 286 287 286 286 286 286 286
286 286 286 286 286 287 287 287 287 287 287 286 286 286 283 283 284 286 286 287 287 286 286 286 286 287 287
286 286 286 286 286 287 287 287 287 288 287 285 285 283 284 283 283 285 286 284 287 286 285 286 286 287 287
286 286 286 286 286 286 286 286 286 287 287 286 284 283 283 283 285 286 286 286 286 286 285 286 287 287 286
286 286 286 286 286 286 286 285 285 286 286 286 285 284 285 286 286 287 285 285 286 286 286 286 286 287 286
286 286 286 286 286 286 285 285 285 285 285 285 285 284 283 283 286 286 285 285 286 286 286 286 286 286 286

GFSFLT2_850_thetae_072.txt.gz
Theta_e
309 308 306 304 302 301 302 302 300 300 299 298 297 298 297 294 292 290 290 291 292 293 293 294 295 295 296
305 305 304 302 302 301 300 300 299 298 297 297 296 292 290 289 289 288 290 290 291 291 291 292 293 293 294
304 303 303 302 300 299 299 298 298 297 295 292 289 288 288 287 288 290 290 290 290 290 290 290 290 291 292
301 301 300 299 299 299 297 293 290 288 288 288 288 287 286 288 289 289 289 289 289 289 289 289 290 290 291
298 297 296 296 293 290 289 289 288 288 287 286 286 288 288 288 289 289 289 289 289 289 289 290 290 290 291
289 289 288 288 288 288 288 287 287 286 286 287 288 288 288 289 289 289 289 289 289 289 289 289 289 290 290
286 287 287 287 287 287 287 286 285 285 287 288 288 289 289 289 289 290 289 289 288 288 289 288 289 289 289
286 286 286 285 285 285 285 284 285 286 287 288 289 289 289 290 290 289 289 288 288 288 288 288 288 288 288
285 284 283 283 283 283 284 285 286 286 287 287 288 289 290 290 289 289 288 288 288 287 287 287 288 288 289
284 284 284 285 285 285 285 285 286 287 288 287 288 288 289 289 289 289 288 288 288 288 287 287 287 287 288
285 285 285 285 285 286 286 286 286 286 286 286 287 286 286 288 290 289 289 289 288 287 286 286 286 286 287
285 285 285 286 286 286 286 287 287 286 286 285 286 285 283 285 287 288 289 289 288 288 286 286 286 286 286
285 285 285 286 286 286 287 287 287 287 286 286 285 286 283 284 285 287 287 289 288 288 287 286 286 286 286
286 286 286 286 286 286 287 287 287 287 286 286 285 284 284 284 284 287 287 286 288 287 286 286 286 286 286
286 286 286 286 287 286 287 287 287 287 287 287 285 284 284 285 285 287 287 287 287 287 286 286 286 286 286
286 286 286 286 286 286 286 286 286 287 286 286 286 286 286 286 286 287 287 286 286 286 286 285 286 286 286
286 286 286 286 286 286 285 285 285 285 285 285 284 284 284 285 286 286 286 286 285 285 285 285 285 286 286

GFSFLT2_850_thetae_075.txt.gz
Theta_e
309 309 308 306 303 302 300 299 299 299 300 299 297 297 297 297 297 296 295 293 292 293 294 294 295 295 296
308 306 304 304 301 300 299 299 298 298 298 298 297 297 297 294 293 292 290 290 291 291 291 292 293 294 295
303 302 302 300 300 299 299 297 297 298 298 297 295 292 291 290 288 287 289 290 290 290 290 290 291 292 293
301 300 299 299 298 298 297 297 297 296 290 289 288 288 288 287 286 287 289 289 289 289 289 289 290 290 291
299 298 297 297 296 295 293 290 289 288 288 288 288 286 286 287 288 288 289 289 289 289 289 290 290 291 291
291 289 289 288 288 288 288 288 287 287 286 286 286 287 288 288 288 289 289 289 289 289 289 289 289 290 289
286 286 286 287 287 287 287 286 285 285 285 287 288 288 288 289 289 289 289 289 289 289 289 290 289 289 289
286 286 285 285 285 285 285 285 285 285 286 287 288 288 288 289 289 290 289 289 289 289 289 289 289 288 288
284 284 284 283 284 284 283 284 285 286 287 287 288 289 289 290 290 290 289 288 288 288 288 288 288 288 288
284 284 284 284 285 285 285 285 286 286 287 287 288 288 289 289 289 289 288 288 288 288 288 288 287 287 288
285 285 285 285 285 285 285 285 286 286 286 285 286 287 288 289 290 289 288 288 288 288 288 288 286 286 287
285 285 285 285 285 286 286 286 286 286 286 286 285 286 284 286 288 289 288 288 288 288 288 286 286 286 286
286 286 286 286 286 286 286 287 287 287 287 286 286 285 284 285 287 288 287 288 288 288 287 287 287 287 287
286 286 286 286 286 286 287 287 287 287 287 286 286 285 286 286 286 287 287 286 288 288 287 287 287 287 287
286 286 286 286 286 286 287 287 287 287 287 286 285 285 285 285 285 286 287 287 287 287 286 287 288 287 287
286 286 286 286 286 286 286 286 287 287 286 285 285 285 285 285 285 286 286 286 286 286 286 285 287 287 286
286 286 286 286 286 286 286 286 286 286 286 285 285 284 283 284 286 285 285 286 285 285 286 286 285 286 286

GFSFLT2_850_thetae_078.txt.gz
Theta_e
308 308 308 308 307 306 303 301 301 300 300 300 299 298 298 298 298 298 298 298 296 295 295 295 296 296 297
306 306 305 306 305 304 302 300 299 299 298 298 298 297 297 297 297 297 297 296 292 291 292 293 294 295 295
305 303 303 303 302 302 301 300 299 299 298 298 297 296 296 296 295 293 289 289 290 290 290 291 291 293 293
301 300 301 301 300 299 298 297 297 297 296 294 292 289 289 289 288 288 287 287 289 289 289 289 289 290 292
300 299 298 297 296 295 293 291 290 289 289 288 288 288 287 287 287 287 288 288 289 289 289 289 290 290 290
290 290 289 288 288 288 288 288 287 287 287 286 286 286 286 287 288 288 289 289 289 289 289 289 289 290 290
287 286 286 286 286 286 286 286 285 285 285 286 287 287 288 288 288 289 289 289 289 289 289 290 290 289 290
286 285 285 285 285 285 285 285 284 284 285 286 287 288 288 288 289 289 289 290 290 289 289 289 289 289 289
285 284 284 284 284 284 284 285 286 286 286 287 288 288 288 289 289 289 289 289 288 288 288 289 289 289 290
284 284 284 285 285 285 286 286 286 286 287 286 287 288 288 288 289 288 288 288 288 288 288 289 289 289 289
286 286 286 286 286 286 286 286 286 286 286 286 287 287 287 288 288 288 288 288 288 287 288 289 289 289 289
286 286 286 286 286 286 286 286 286 287 287 286 285 286 285 286 287 288 288 288 288 288 288 288 288 287 288
286 286 286 286 286 286 287 287 287 287 287 286 286 286 284 285 286 287 287 289 288 288 288 287 288 287 287
286 286 286 286 287 287 287 287 287 287 286 286 286 286 286 286 286 287 287 286 287 287 287 287 288 287 287
286 286 286 287 287 287 287 287 287 288 287 286 285 285 286 286 287 288 287 287 287 287 286 286 287 288 288
285 286 286 286 286 286 286 286 286 286 286 285 285 285 286 287 286 287 286 286 287 286 286 286 287 288 288
284 285 285 285 285 285 285 285 286 286 286 285 285 284 284 284 286 285 286 286 285 286 285 285 286 288 287

GFSFLT2_850_thetae_081.txt.gz
Theta_e
308 307 306 307 307 306 304 304 304 303 304 304 304 304 303 303 302 301 300 299 299 299 298 297 297 297 297
306 305 304 305 304 303 303 302 303 302 301 301 301 300 300 299 298 298 298 297 297 298 296 293 294 294 295
304 303 302 302 302 303 303 302 302 301 300 300 299 299 299 298 298 298 297 296 292 289 289 290 291 293 294
301 299 299 299 299 299 300 300 299 299 298 297 296 295 294 293 292 290 288 288 287 288 289 289 289 289 290
299 298 297 296 295 294 292 292 291 290 289 289 288 288 287 287 287 287 287 286 287 288 289 289 290 290 291
288 288 288 288 288 288 288 287 287 287 287 286 286 286 286 286 287 288 288 288 288 288 289 289 289 290 290
287 287 287 286 286 286 286 286 285 285 285 285 286 287 287 288 288 288 288 288 288 288 289 289 290 290 290
286 286 286 285 285 285 285 285 284 285 285 286 287 287 288 288 288 288 289 289 289 289 289 289 289 289 289
285 285 285 285 285 285 285 286 286 286 287 287 288 288 288 288 288 289 289 289 289 289 289 289 289 289 289
286 286 286 286 286 286 286 286 286 287 287 287 288 288 288 288 288 288 288 288 288 288 289 289 289 289 289
287 287 287 287 287 286 286 287 287 287 287 287 287 287 287 288 288 288 287 288 288 288 288 288 288 289 289
287 287 287 287 287 287 287 287 287 287 287 287 286 286 286 286 288 288 288 288 288 288 288 287 288 288 288
287 287 286 286 286 287 287 287 287 287 287 286 287 286 286 286 287 287 288 288 288 289 288 287 287 288 288
286 286 286 287 287 287 287 287 287 287 286 286 286 286 287 287 287 288 287 287 287 287 287 287 287 288 288
286 286 286 286 286 286 287 286 287 287 287 286 286 286 286 286 286 287 287 287 287 286 286 287 288 287 287
284 284 285 285 285 286 286 286 286 286 287 286 285 285 286 287 286 286 286 286 286 286 285 285 287 287 287
283 283 282 283 284 285 285 285 285 286 286 285 285 284 284 284 286 285 286 286 285 285 285 285 285 287 286

GFSFLT2_850_thetae_084.txt.gz
Theta_e
308 307 306 306 306 307 306 305 304 304 304 305 305 305 306 305 305 304 304 303 302 302 302 301 300 299 299
307 306 305 305 305 305 304 303 303 302 303 303 303 303 303 303 302 301 301 300 299 299 300 299 297 297 297
305 305 303 302 302 301 303 303 302 302 302 302 302 302 301 301 301 300 299 299 298 298 297 295 293 293 294
303 302 300 299 299 299 298 299 299 299 299 299 299 298 296 296 295 294 292 290 289 288 288 288 289 290 290
298 297 296 295 294 293 291 290 290 290 290 290 289 289 288 288 288 288 288 287 287 287 287 289 289 290 292
289 288 288 288 288 288 288 287 289 288 287 287 287 287 287 287 286 287 287 288 288 288 288 289 290 290 291
288 287 287 287 287 287 286 286 286 286 286 286 286 287 287 288 288 288 288 288 289 289 289 289 289 289 290
287 287 286 286 286 286 285 285 286 286 286 287 287 288 288 288 289 289 289 289 289 289 289 289 289 289 289
286 286 286 286 286 286 286 287 287 287 287 288 288 288 289 289 289 289 290 290 289 289 289 289 289 289 289
288 288 288 288 288 287 287 287 287 287 287 287 288 288 288 288 289 289 289 289 289 289 289 289 289 289 289
288 288 287 287 287 287 287 287 287 287 287 287 288 287 287 288 288 288 288 288 288 289 289 289 289 289 288
288 287 287 287 287 287 287 287 287 287 287 287 287 287 287 287 287 288 288 288 288 288 288 288 289 289 288
287 287 287 287 287 287 287 287 287 287 287 287 287 287 286 287 287 288 288 289 288 288 288 288 288 288 288
286 286 287 287 287 287 287 287 287 287 287 287 287 287 287 287 287 288 288 287 288 287 288 288 287 287 287
285 285 285 285 285 286 286 286 286 286 286 286 286 287 287 287 287 287 287 287 287 287 287 287 288 288 287
285 284 284 284 283 284 285 285 286 286 285 285 285 285 286 287 287 287 286 286 286 286 285 286 287 287 287
284 284 283 283 282 282 282 283 284 285 285 284 284 284 284 283 285 286 286 285 285 284 284 285 285 287 286

GFSFLT2_850_thetae_087.txt.gz
Theta_e
308 308 307 306 306 306 306 306 305 303 304 303 305 305 305 306 306 306 305 304 304 304 302 301 301 301 301
307 307 307 305 305 305 305 305 304 303 302 302 303 303 303 304 304 303 303 302 301 301 300 299 299 299 299
307 306 305 304 303 302 303 303 303 303 303 303 302 301 301 302 302 301 301 300 300 299 298 298 298 298 298
304 303 302 300 300 300 299 298 298 299 299 299 299 299 298 299 299 299 297 294 292 291 290 289 289 289 289
300 297 295 294 293 292 291 290 290 289 289 289 289 289 289 289 289 289 289 288 288 288 287 287 288 289 289
290 290 290 289 289 289 288 288 289 289 288 287 288 287 287 287 287 287 287 287 287 287 287 288 289 290 291
289 289 289 289 288 287 287 287 287 287 286 287 287 287 288 288 288 288 288 289 289 289 289 289 289 290 289
288 288 288 287 287 287 287 286 287 287 287 288 288 288 289 289 289 289 289 289 289 289 290 289 290 290 290
287 288 287 287 287 287 288 288 288 288 288 288 288 289 289 289 289 289 290 290 289 290 290 290 290 290 290
289 289 289 289 288 288 288 288 288 288 289 288 288 289 289 290 289 289 289 290 290 290 290 290 290 290 289
289 289 288 288 288 288 288 288 288 288 288 288 288 288 288 289 289 289 289 289 289 289 289 289 289 289 290
288 288 288 288 288 288 288 288 288 288 287 288 287 287 287 288 289 288 289 289 289 289 289 289 289 289 289
288 288 288 287 287 287 288 288 288 288 288 288 288 288 288 288 288 289 289 290 289 289 289 288 288 288 289
287 287 287 287 287 287 287 287 287 287 287 287 287 287 288 288 288 289 288 288 288 288 288 289 289 288 288
286 286 286 285 285 285 285 285 286 286 287 287 287 287 287 287 288 288 287 287 287 287 287 288 288 288 288
286 286 285 285 284 284 284 284 284 285 285 285 285 286 286 287 287 287 287 286 286 286 286 286 287 288 287
286 286 285 285 284 284 283 284 284 284 284 284 284 284 283 284 286 285 285 285 285 285 285 284 285 286 286

GFSFLT2_850_thetae_090.txt.gz
Theta_e
309 309 308 307 306 305 305 305 304 303 302 302 303 305 306 307 308 308 307 306 305 305 304 304 303 302 302
308 307 306 306 305 304 304 304 304 303 302 303 304 304 304 304 304 305 304 304 303 302 302 301 300 299 299
306 306 306 304 303 302 302 302 302 302 302 302 303 303 303 303 302 303 302 302 302 301 301 300 299 299 298
306 305 303 301 299 298 298 298 296 296 297 297 298 298 299 299 299 300 300 299 298 297 296 295 294 292 291
303 301 297 295 294 293 292 291 290 290 289 289 289 289 289 289 289 288 288 288 288 288 288 288 288 288 288
294 292 291 291 290 289 289 288 288 290 288 288 288 288 287 287 287 287 287 287 287 287 287 287 287 288 288
290 290 290 290 289 288 288 288 288 288 287 287 288 287 288 288 289 289 288 288 288 289 289 289 289 289 290
289 289 289 289 288 288 287 288 288 288 288 288 289 289 289 289 290 289 289 289 289 289 289 289 289 289 290
288 288 288 288 289 288 288 289 289 289 289 289 289 289 289 289 289 290 289 289 289 289 289 289 290 290 290
289 290 289 289 289 289 289 289 288 288 289 289 289 289 289 289 290 289 289 290 290 289 289 290 290 290 290
290 290 290 289 289 289 289 289 288 288 289 288 288 289 289 289 289 289 289 289 289 289 289 289 289 289 289
289 289 289 289 289 289 288 288 288 288 288 288 288 288 288 289 289 289 289 289 289 290 290 290 289 289 289
289 289 289 288 288 288 288 288 288 288 288 288 288 288 288 288 289 289 289 289 289 290 289 289 289 289 289
288 288 288 287 287 287 287 287 287 287 288 288 288 288 288 288 287 289 288 288 288 288 288 289 289 289 289
288 287 287 287 287 287 286 286 286 286 286 287 287 287 287 287 288 288 287 287 287 287 287 288 288 288 288
287 287 287 286 286 286 286 286 286 285 285 285 285 285 286 287 286 286 286 286 286 286 286 285 287 287 286
287 286 286 286 286 286 286 286 286 285 284 284 284 283 283 285 287 285 285 285 285 285 284 284 284 286 286

GFSFLT2_850_thetae_093.txt.gz
Theta_e
310 309 307 308 306 306 305 304 303 302 301 302 302 304 305 308 308 309 309 309 308 307 306 305 304 303 303
308 306 307 306 306 304 303 303 303 302 301 301 302 303 304 305 305 305 306 305 304 304 303 302 302 301 301
306 306 305 305 304 302 302 301 302 301 301 301 301 302 303 303 303 303 303 302 302 302 303 302 301 300 300
306 306 304 303 301 299 298 298 297 295 295 295 296 297 298 299 300 301 301 301 301 300 299 298 298 298 297
305 303 302 300 296 295 294 293 291 290 290 290 289 289 289 289 289 289 289 290 290 290 289 289 289 289 289
302 299 295 293 292 291 290 289 289 289 289 288 288 288 288 288 288 288 288 288 287 287 287 287 287 287 288
292 291 291 291 290 290 289 288 288 288 288 287 288 288 288 289 289 289 289 289 289 289 289 289 289 289 289
290 290 290 290 289 289 288 288 288 289 289 289 289 289 289 289 289 289 289 289 289 290 290 289 289 289 289
290 289 289 289 289 289 289 289 290 290 289 289 289 289 289 289 289 290 289 289 289 289 289 289 289 289 290
289 289 290 290 290 290 290 289 289 289 290 289 289 289 289 289 289 290 289 289 290 289 289 289 289 289 289
290 290 290 290 290 290 289 289 289 289 289 289 289 289 289 289 289 289 289 289 289 289 289 289 289 289 289
290 290 290 290 289 289 289 289 289 288 289 289 289 289 289 289 289 289 289 289 289 289 289 290 290 290 290
290 290 289 289 289 288 288 288 288 288 288 288 288 288 289 289 289 289 289 289 289 289 289 289 290 289 289
289 289 288 288 288 288 288 288 287 287 287 287 288 288 288 288 288 289 288 288 288 288 288 289 289 289 289
288 288 287 287 287 287 288 288 287 286 286 286 286 287 287 287 288 288 287 287 287 287 287 287 288 287 287
287 287 287 287 287 287 288 288 287 286 286 286 285 285 286 286 286 286 286 286 285 285 285 286 287 286 286
287 287 286 286 286 287 287 287 288 286 285 285 285 285 285 286 285 285 286 285 286 286 285 284 286 287 286

GFSFLT2_850_thetae_096.txt.gz
Theta_e
313 312 310 307 306 307 306 305 303 303 302 303 303 305 307 309 310 310 310 311 311 311 310 309 308 306 304
311 309 307 305 306 305 304 304 303 302 302 303 302 303 305 306 307 307 308 308 308 307 306 305 304 304 303
307 306 305 305 305 304 303 302 302 302 302 301 301 302 303 303 303 304 304 304 305 304 303 303 303 302 301
306 305 305 304 304 302 300 299 298 298 296 296 297 297 298 299 300 301 302 302 302 302 301 301 300 299 299
305 305 304 304 302 299 296 295 294 292 291 290 290 289 289 289 290 290 292 293 295 295 294 293 292 291 290
304 303 302 301 297 294 293 292 290 290 290 289 289 288 288 288 288 288 288 288 288 288 288 288 288 288 288
301 298 295 293 292 291 290 290 289 289 289 288 288 288 288 289 289 289 289 289 289 288 288 288 289 289 289
292 291 291 291 290 290 289 289 288 288 288 289 289 289 289 289 290 289 289 289 290 290 290 289 289 289 289
290 290 290 290 289 289 289 289 288 289 290 290 289 289 289 290 290 290 290 290 290 290 290 290 290 290 290
289 289 289 289 290 290 290 289 290 289 290 289 289 289 289 289 289 290 289 290 290 290 290 290 290 290 290
289 290 290 290 290 290 290 290 290 289 289 289 289 289 289 289 289 289 289 289 289 289 289 289 289 289 289
290 290 290 290 290 289 290 289 289 289 289 289 289 289 289 289 288 289 289 289 288 289 289 289 289 290 290
289 290 289 289 289 289 289 289 288 288 288 288 288 289 289 289 289 289 288 288 289 289 289 289 290 290 290
288 289 289 288 288 288 288 288 288 288 288 287 287 287 288 288 288 289 288 288 288 288 289 289 289 289 289
288 288 288 288 288 288 288 288 288 287 287 287 287 287 287 287 287 287 287 287 287 287 288 288 287 287 287
287 287 287 287 287 287 287 287 287 286 286 286 286 286 286 287 287 287 287 287 286 286 286 287 287 287 286
287 287 286 286 286 286 287 287 288 287 286 285 285 285 285 286 286 286 286 286 286 286 285 286 287 288 287

GFSFLT2_850_thetae_099.txt.gz
Theta_e
315 314 313 312 310 307 306 306 304 302 301 302 303 305 308 310 311 313 314 314 313 312 312 311 311 309 308
313 312 311 310 308 305 306 305 304 301 301 301 301 302 305 308 309 309 309 309 309 310 309 309 308 307 306
309 309 309 307 305 305 305 304 302 302 302 301 301 301 304 306 307 307 307 307 307 307 306 305 304 303 303
308 307 305 305 304 304 304 302 300 300 300 299 298 298 299 301 302 303 303 304 304 304 303 303 302 302 301
305 305 304 304 304 304 302 299 297 295 293 291 291 290 291 291 293 296 298 300 301 301 300 300 299 298 296
305 305 305 304 303 302 299 296 294 292 290 290 290 289 289 289 289 289 289 289 289 289 289 289 289 289 289
303 303 302 301 300 297 294 292 291 289 290 290 289 289 289 289 289 289 289 289 289 289 288 288 288 288 289
301 299 296 294 292 291 290 289 289 289 289 289 289 289 289 289 290 290 290 290 290 290 290 289 290 290 290
292 291 291 290 290 290 289 289 288 289 289 290 290 290 290 290 290 290 290 290 290 290 290 290 290 290 290
289 289 289 289 289 289 288 289 289 289 290 290 290 289 290 290 290 290 290 290 290 290 290 290 290 290 290
288 288 288 289 289 289 289 290 290 290 290 290 290 289 289 289 290 290 290 290 290 290 290 290 289 289 289
288 289 289 289 289 289 289 289 289 289 289 289 289 289 289 289 289 289 289 289 289 289 289 289 289 289 290
288 289 289 289 289 289 289 289 289 289 289 288 288 289 288 288 289 289 289 289 289 289 289 289 289 290 290
288 288 288 289 289 288 289 288 288 288 288 288 289 288 288 288 288 288 288 288 289 289 289 289 289 289 289
288 288 288 288 288 288 288 288 288 288 288 288 288 288 288 287 287 287 287 288 288 288 288 288 288 288 288
287 287 288 288 288 287 287 287 288 288 288 288 288 288 288 288 288 288 287 287 287 287 287 288 287 287 287
287 287 287 287 287 287 287 286 287 287 288 287 288 288 287 289 288 287 287 286 286 287 287 287 287 288 287

GFSFLT2_850_thetae_102.txt.gz
Theta_e
312 314 314 314 313 311 309 308 306 304 302 302 302 305 307 310 312 314 315 315 316 316 315 315 314 312 311
311 312 312 312 311 309 308 305 305 302 301 300 301 302 305 307 309 311 311 312 312 312 312 312 311 310 309
308 309 309 309 309 307 305 304 304 302 300 300 301 301 303 306 307 308 308 308 307 308 308 308 308 306 307
306 306 307 307 305 304 304 303 303 301 300 300 300 300 299 303 304 305 306 306 306 306 305 305 305 304 303
304 303 304 303 303 303 303 302 301 299 298 296 294 293 293 295 298 300 301 302 302 303 303 303 303 302 301
303 303 303 303 302 302 302 302 299 296 294 292 290 290 290 290 289 290 291 293 296 298 300 300 299 297 295
302 302 302 303 302 302 302 299 296 293 290 290 290 289 289 289 288 289 289 289 289 289 289 289 289 289 289
302 302 301 299 299 298 296 294 292 291 290 289 289 288 289 289 289 290 289 290 290 290 289 289 289 289 289
301 300 298 295 293 292 291 291 290 289 289 288 289 289 289 289 290 290 290 290 290 290 290 290 290 290 290
289 289 289 290 290 290 290 289 288 288 289 289 290 290 289 290 290 290 290 290 290 290 290 290 290 290 290
288 289 289 289 289 288 289 289 289 289 290 289 290 290 289 289 290 290 290 290 290 290 290 290 290 290 290
288 288 288 288 288 289 289 290 290 290 289 289 290 289 289 289 289 290 290 290 290 289 289 289 290 290 290
288 287 288 288 289 289 289 289 290 289 289 289 289 289 289 289 289 289 289 289 289 289 289 289 289 289 290
288 287 288 289 289 289 289 289 289 289 289 289 289 288 288 288 288 288 289 289 289 289 289 289 289 289 289
287 287 287 288 288 288 288 288 288 288 288 288 289 289 289 289 289 288 288 288 288 288 289 289 289 288 288
287 286 287 287 287 288 288 288 288 287 287 287 289 289 289 289 290 290 289 289 288 288 288 288 288 288 288
286 286 287 286 286 287 287 287 287 287 286 286 288 288 288 289 289 289 289 288 288 288 288 288 288 287 287

GFSFLT2_850_thetae_105.txt.gz
Theta_e
312 312 311 310 313 312 311 310 309 308 306 303 303 305 307 310 312 316 317 318 317 317 316 315 315 315 313
310 309 310 311 311 309 309 309 307 306 303 301 301 303 306 307 311 311 314 315 316 316 316 315 315 314 312
307 307 307 310 310 309 307 306 305 303 301 300 299 301 303 306 307 308 310 311 310 311 312 312 311 311 310
304 304 305 307 307 306 305 305 303 301 301 300 300 301 300 302 306 307 307 307 307 306 306 306 306 306 305
303 303 304 304 304 304 304 302 302 301 300 299 298 297 296 297 301 304 306 306 306 305 305 305 305 304 304
301 302 302 302 302 302 302 301 300 300 299 296 294 291 290 290 291 295 298 300 301 301 302 302 302 302 301
301 301 302 301 301 301 300 300 300 299 293 293 291 290 290 289 289 290 289 290 290 291 294 296 297 296 294
302 302 302 302 301 301 300 300 299 295 293 290 290 289 289 289 289 289 289 289 289 289 289 289 289 288 289
301 301 301 300 298 297 297 296 293 292 290 289 289 289 289 289 289 290 290 290 290 290 290 289 289 289 290
293 294 294 293 294 292 291 291 290 289 289 289 289 289 289 290 290 290 290 290 290 290 290 290 290 290 290
289 289 289 289 289 290 290 289 289 288 290 289 290 290 290 290 290 290 290 290 290 290 290 290 290 290 290
288 288 288 288 288 288 288 289 288 289 289 290 290 290 290 290 290 290 290 290 290 290 290 290 290 290 290
288 288 287 288 288 289 289 289 289 289 289 290 290 290 290 290 290 290 289 290 290 289 289 289 289 289 289
288 288 288 289 289 289 289 289 289 289 289 289 289 289 289 289 290 290 289 289 290 289 289 289 289 289 289
287 288 288 288 288 289 289 288 289 289 288 288 288 289 290 290 290 290 289 289 289 289 289 289 289 289 289
287 287 287 288 288 288 288 288 288 288 288 287 287 288 289 290 290 290 291 291 290 289 288 288 288 288 288
287 287 287 287 287 287 288 287 288 288 287 287 287 287 288 289 290 290 291 291 290 290 289 289 288 288 288

GFSFLT2_850_thetae_108.txt.gz
Theta_e
310 310 310 312 311 310 311 311 310 309 308 307 305 304 306 310 312 315 315 317 317 316 318 318 317 316 315
308 308 310 309 309 309 309 308 307 306 306 305 303 302 305 308 311 312 315 317 318 318 318 317 316 316 315
306 307 306 306 307 308 308 306 306 305 304 303 301 301 304 306 308 310 311 312 313 315 316 316 315 314 314
303 304 304 305 305 306 306 306 305 304 303 302 300 300 301 302 306 307 308 310 311 310 309 310 311 311 309
302 302 303 304 304 305 305 304 303 302 302 301 299 299 298 298 301 306 307 307 306 305 305 305 305 305 305
301 302 302 303 303 303 303 302 301 301 301 300 298 296 293 292 293 298 303 305 305 305 304 304 304 304 304
301 301 301 302 302 302 302 301 301 301 298 298 296 293 291 290 290 290 291 295 298 299 300 300 301 301 301
301 301 302 302 301 301 300 299 299 299 299 293 291 290 290 289 289 289 289 289 289 289 289 291 293 293 293
301 301 301 301 301 300 299 298 298 298 296 293 290 289 289 289 289 289 289 289 289 289 289 289 289 288 288
296 298 299 300 300 298 296 296 296 293 291 290 289 288 289 289 290 290 290 290 290 290 290 290 289 289 290
290 289 289 290 291 292 291 291 291 290 289 289 289 289 290 290 290 290 290 290 290 290 290 290 290 290 290
288 288 289 289 289 289 289 289 289 288 288 290 289 290 290 290 290 291 290 290 290 290 290 290 290 290 290
288 288 288 288 288 288 288 288 288 288 289 289 289 289 290 289 290 290 290 290 290 290 290 290 290 289 289
287 288 288 288 288 289 289 289 289 289 289 289 290 290 290 290 290 290 290 290 290 290 290 290 289 289 289
287 287 288 288 288 288 289 289 289 289 289 289 289 289 289 290 290 290 290 290 290 290 289 289 289 289 289
287 287 287 287 287 288 288 288 288 288 288 288 288 288 289 290 291 291 290 291 291 291 290 290 290 289 289
287 287 287 287 287 287 287 287 288 288 288 288 288 288 287 288 290 290 291 291 291 291 291 291 291 289 289

GFSFLT2_850_thetae_111.txt.gz
Theta_e
311 309 309 308 309 311 310 309 309 309 309 309 307 307 305 306 310 312 315 316 315 315 317 319 319 319 317
309 307 307 308 308 308 308 308 309 308 307 307 307 304 304 306 309 311 314 316 317 316 317 319 318 316 315
305 305 305 306 306 306 306 306 307 306 305 305 305 302 302 305 307 310 311 312 317 317 318 317 316 316 316
303 303 303 303 304 304 305 305 306 305 304 304 303 302 300 302 305 306 308 310 310 310 313 315 314 314 313
301 301 301 302 303 304 304 305 304 304 303 302 302 301 299 299 300 304 306 307 307 308 308 309 309 309 309
300 300 301 302 302 303 303 303 303 303 302 302 301 300 297 295 295 298 303 305 305 305 305 306 307 305 305
300 301 301 301 302 302 302 302 302 301 301 300 300 299 295 293 291 291 294 301 305 305 305 304 303 303 303
301 301 301 301 301 301 301 301 300 300 299 299 297 292 292 291 290 290 290 291 292 296 298 298 299 299 300
300 301 301 301 301 301 301 300 299 298 298 298 297 292 290 290 289 289 289 290 289 289 289 289 289 290 291
295 296 299 300 300 300 300 298 297 296 297 295 293 290 289 289 289 289 290 291 290 290 290 289 289 289 289
291 291 290 290 295 297 296 295 295 295 291 289 290 289 289 290 290 290 290 290 291 291 290 290 290 290 290
288 289 289 289 289 290 290 291 291 291 290 289 288 289 289 290 290 290 290 291 291 290 290 290 290 290 290
287 288 288 288 288 288 288 288 288 288 288 288 289 289 290 290 290 290 291 291 291 290 290 290 290 290 290
287 287 288 288 288 288 288 288 288 289 289 289 289 289 290 290 290 290 290 291 291 291 291 291 290 290 290
287 287 287 288 288 288 288 289 289 289 289 289 289 289 289 289 290 290 290 291 291 290 291 291 291 290 290
287 287 287 287 288 288 288 288 289 289 289 289 289 289 289 289 289 290 291 291 291 291 291 291 292 291 291
287 287 287 287 287 287 287 287 288 288 289 289 289 288 288 289 289 290 291 291 291 291 291 291 292 291 292

GFSFLT2_850_thetae_114.txt.gz
Theta_e
310 309 310 309 308 307 308 308 308 308 307 308 308 308 306 306 305 309 312 314 315 314 314 313 315 318 319
308 308 309 307 305 307 306 306 306 306 306 307 307 306 305 304 305 309 311 315 317 314 315 315 316 317 318
307 306 305 304 304 305 305 305 305 304 306 305 305 304 303 302 305 308 311 312 316 315 318 319 319 315 312
304 304 302 301 302 302 303 304 304 304 305 304 304 303 302 300 303 306 309 310 311 316 316 316 315 315 312
303 302 301 300 301 302 302 303 304 304 304 303 303 302 302 299 298 301 305 308 309 310 311 311 311 311 311
302 301 300 301 301 301 302 303 303 303 303 302 302 301 301 297 295 295 300 305 306 307 308 308 309 308 308
301 301 300 301 301 301 302 302 302 302 301 301 301 300 300 296 293 291 292 297 303 305 305 306 306 306 305
301 301 301 301 301 301 301 301 301 301 300 300 299 299 294 293 292 291 291 290 292 299 302 303 304 304 303
300 300 301 301 301 301 301 301 301 300 299 298 297 298 294 290 290 290 289 290 290 290 290 293 295 297 299
299 298 298 300 300 300 300 300 299 297 296 296 297 296 290 290 290 290 289 290 290 289 289 289 289 289 290
294 293 293 291 293 298 299 299 298 296 294 289 291 291 289 290 290 290 290 291 290 290 290 290 290 290 289
289 289 289 289 289 289 290 292 292 293 293 292 289 289 289 289 290 290 290 290 290 291 290 291 290 290 290
288 288 288 288 288 288 288 289 289 290 290 289 288 289 289 290 290 291 291 291 290 290 290 290 290 290 291
288 288 287 287 288 287 287 288 287 288 288 288 288 288 289 290 290 291 291 291 292 291 291 291 291 291 291
288 288 287 287 288 288 287 288 288 289 289 289 289 289 289 290 290 290 291 291 291 291 291 291 291 291 291
287 287 287 287 287 287 288 288 288 288 289 289 289 289 289 290 290 291 291 291 291 291 291 291 292 291 292
287 287 287 287 287 287 287 287 288 288 288 288 288 288 288 289 290 290 290 290 290 291 291 291 292 291 291

GFSFLT2_850_thetae_117.txt.gz
Theta_e
311 311 310 309 307 308 306 307 307 306 306 306 306 306 307 305 305 304 308 310 313 315 314 314 310 312 314
310 309 307 306 306 306 304 305 305 305 304 305 306 306 306 304 303 304 310 311 313 316 315 313 311 314 316
308 307 306 305 304 302 303 304 304 304 304 304 304 304 304 303 302 304 310 311 315 316 315 315 315 317 317
306 305 304 303 302 300 301 302 303 303 303 303 304 303 303 302 301 302 308 310 311 316 316 317 316 315 312
305 303 302 302 300 300 301 302 302 303 303 303 303 303 302 302 300 299 304 308 309 311 314 314 313 313 312
304 302 302 301 300 301 301 301 302 302 302 302 302 302 302 300 299 295 298 305 307 309 310 311 310 311 312
303 302 301 301 301 301 301 301 301 301 301 301 301 301 300 299 298 294 293 298 305 306 307 307 308 309 309
301 301 301 301 300 301 301 301 301 301 301 300 300 299 299 298 293 293 292 291 296 303 304 305 305 306 305
301 300 300 300 300 300 301 301 301 301 300 299 298 297 297 297 291 290 290 290 290 293 300 302 303 303 303
299 299 298 298 300 300 300 300 300 299 298 296 295 296 294 289 290 290 290 289 289 290 290 291 293 297 299
297 295 294 294 294 294 298 299 298 298 297 293 290 290 293 291 290 289 289 290 290 290 289 289 289 289 289
291 290 289 289 289 289 289 291 293 294 293 293 293 290 288 288 289 290 289 290 290 290 290 290 290 289 289
289 289 288 288 288 288 288 289 289 290 290 290 291 289 289 289 289 290 290 291 290 290 290 290 290 289 290
288 288 288 288 288 288 288 288 288 288 288 288 288 288 288 289 290 290 290 291 291 291 290 290 290 290 290
288 288 288 287 287 288 288 288 288 289 288 289 289 288 289 289 290 290 290 291 290 291 291 291 291 291 291
289 288 288 287 287 287 288 288 288 288 289 288 288 289 289 290 290 290 290 290 290 290 291 292 292 291 291
288 288 287 287 287 287 287 287 287 287 288 288 288 288 289 289 289 289 289 289 289 290 290 291 292 290 291